Weather History for Cape Girardeau, MO

Change the Weather History Date:

Tuesday, November 20, 2012

  Actual Average Record
Temperature  
Mean Temperature 55 °F 45 °F  
Max Temperature 67 °F 55 °F 77 °F (1989)
Min Temperature 43 °F 35 °F 19 °F (1968)
Degree Days  
Heating Degree Days 10 20  
Month to date heating degree days 362 323  
Since 1 July heating degree days 707 626  
Cooling Degree Days 0 0  
Month to date cooling degree days 0 0  
Year to date cooling degree days 1784 1451  
Growing Degree Days 5 (Base 50)    
Moisture  
Dew Point 45 °F    
Average Humidity 71    
Maximum Humidity 89    
Minimum Humidity 52    
Precipitation  
Precipitation 0.00 in 0.16 in 0.74 in (2011)
Month to date precipitation 1.24 2.87  
Year to date precipitation 25.20 40.99  
Sea Level Pressure  
Sea Level Pressure 30.12 in    
Wind  
Wind Speed 2 mph (WSW)    
Max Wind Speed 12 mph    
Max Gust Speed 14 mph    
Visibility 9 miles    
Events      
T = Trace of Precipitation, MM = Missing Value Source: NWS Daily Summary

Daily Weather History Graph

Daily Weather History Graph

Search for Another Location

Airport:

Trip Planner

Search our weather history database for the weather conditions in past years. The results will help you decide how hot, cold, wet, or windy it might be!

Date:

Astronomy

Nov. 20, 2012 Rise Set
Actual Time 6:43 AM CST 4:44 PM CST
Civil Twilight 6:14 AM CST 5:12 PM CST
Nautical Twilight 5:43 AM CST 5:44 PM CST
Astronomical Twilight 5:12 AM CST 6:15 PM CST
Moon 12:21 PM CST No Moon Set
Length of Visible Light 10h 57m
Length of Day
10h 01m
First Quarter, 51% of the Moon is Illuminated
Nov 20
First Quarter
Nov 28
Full
Dec 6
Last Quarter
Dec 13
New
Dec 19
First Quarter

Hourly Weather History & Observations

Time (CST) Temp. Windchill Dew Point Humidity Pressure Visibility Wind Dir Wind Speed Gust Speed Precip Events Conditions
12:53 AM 48.9 °F - 44.1 °F 83% 30.14 in 10.0 mi Calm Calm - N/A   Overcast
1:53 AM 51.1 °F - 45.0 °F 80% 30.16 in 10.0 mi Calm Calm - N/A   Overcast
2:53 AM 51.1 °F - 45.0 °F 80% 30.14 in 10.0 mi Calm Calm - N/A   Overcast
3:53 AM 51.1 °F - 46.0 °F 83% 30.13 in 10.0 mi South 3.5 mph - N/A   Overcast
4:53 AM 53.1 °F - 44.1 °F 71% 30.12 in 10.0 mi SSW 3.5 mph - N/A   Overcast
5:53 AM 50.0 °F - 43.0 °F 77% 30.12 in 10.0 mi Calm Calm - N/A   Overcast
6:53 AM 46.9 °F - 42.1 °F 83% 30.14 in 10.0 mi Calm Calm - N/A   Clear
7:53 AM 50.0 °F - 44.1 °F 80% 30.14 in 10.0 mi Calm Calm - N/A   Clear
8:53 AM 54.0 °F - 45.0 °F 72% 30.14 in 10.0 mi WSW 8.1 mph - N/A   Clear
9:53 AM 57.9 °F - 46.0 °F 65% 30.13 in 10.0 mi WSW 6.9 mph - N/A   Clear
10:53 AM 60.1 °F - 46.9 °F 62% 30.12 in 10.0 mi West 6.9 mph - N/A   Clear
11:53 AM 62.1 °F - 48.0 °F 60% 30.08 in 10.0 mi WSW 5.8 mph - N/A   Clear
12:53 PM 62.6 °F - 48.2 °F 59% 30.07 in 10.0 mi WNW 4.6 mph - N/A   Clear
1:53 PM 64.9 °F - 48.0 °F 54% 30.04 in 10.0 mi SSW 3.5 mph - N/A   Clear
2:53 PM 66.0 °F - 48.0 °F 52% 30.05 in 10.0 mi Calm Calm - N/A   Clear
3:53 PM 66.0 °F - 50.0 °F 56% 30.06 in 10.0 mi Calm Calm - N/A   Clear
4:53 PM 63.0 °F - 46.9 °F 56% 30.07 in 10.0 mi Calm Calm - N/A   Clear
5:53 PM 55.9 °F - 45.0 °F 67% 30.11 in 10.0 mi North 5.8 mph - N/A   Clear
6:53 PM 53.1 °F - 43.0 °F 69% 30.13 in 10.0 mi North 5.8 mph - N/A   Clear
7:53 PM 50.0 °F - 42.1 °F 74% 30.14 in 10.0 mi Calm Calm - N/A   Clear
8:53 PM 50.0 °F - 43.0 °F 77% 30.16 in 8.0 mi Calm Calm - N/A   Clear
9:53 PM 45.0 °F - 41.0 °F 86% 30.16 in 7.0 mi Calm Calm - N/A   Clear
10:53 PM 44.1 °F 42.5 °F 41.0 °F 89% 30.17 in 6.0 mi West 3.5 mph - N/A   Clear
11:53 PM 45.0 °F - 42.1 °F 90% 30.18 in 5.0 mi Calm Calm - N/A   Clear